Elkins, WV

9:08 AM EST on November 21, 2017 (GMT -0500)
Elkins-Randolph County

Weather History for KEKN - October, 2012

Change the Weather History Date:

Saturday, October 27, 2012

  Actual Average Record
Temperature  
Mean Temperature 56 °F 48 °F  
Max Temperature 66 °F 61 °F 80 °F (1984)
Min Temperature 46 °F 35 °F 12 °F (1962)
Degree Days  
Heating Degree Days 9 17  
Month to date heating degree days 314 359  
Since 1 July heating degree days 478 519  
Cooling Degree Days 0 0  
Month to date cooling degree days 9 0  
Year to date cooling degree days 675 471  
Growing Degree Days 6 (Base 50)    
Moisture  
Dew Point 48 °F    
Average Humidity 82    
Maximum Humidity 100    
Minimum Humidity 63    
Precipitation  
Precipitation T in 0.10 in 1.37 in (1939)
Month to date precipitation 1.68 2.46  
Year to date precipitation 39.23 38.90  
Snow  
Snow 0.00 in 0.00 in T in (2008)
Month to date snowfall 0.0 0.2  
Since 1 September snowfall 0.0 0.2  
Snow Depth 0.00 in    
Sea Level Pressure  
Sea Level Pressure 29.96 in    
Wind  
Wind Speed 4 mph (NW)    
Max Wind Speed 14 mph    
Max Gust Speed 18 mph    
Visibility 7 miles    
Events Rain    
T = Trace of Precipitation, MM = Missing Value Source: NWS Daily Summary

Daily Weather History Graph

Daily Weather History Graph

Search for Another Location

Airport or City:

Trip Planner

Search our weather history database for the weather conditions in past years. The results will help you decide how hot, cold, wet, or windy it might be!

Date:

Astronomy

Oct. 27, 2012 Rise Set
Actual Time 7:41 AM EDT 6:24 PM EDT
Civil Twilight 7:14 AM EDT 6:51 PM EDT
Nautical Twilight 6:43 AM EDT 7:22 PM EDT
Astronomical Twilight 6:12 AM EDT 7:53 PM EDT
Moon 5:08 PM EDT (10/27) 5:36 AM EDT (10/27)
Length of Visible Light 11h 37m
Length of Day
10h 42m
Waxing Gibbous, 96% of the Moon is Illuminated
Oct 27
Waxing Gibbous
Oct 29
Full
Nov 6
Last Quarter
Nov 13
New
Nov 20
First Quarter

Hourly Weather History & Observations

Time (EDT) Temp. Windchill Dew Point Humidity Pressure Visibility Wind Dir Wind Speed Gust Speed Precip Events Conditions
12:51 AM 57.9 °F - 50.0 °F 75% 29.99 in 10.0 mi SE 9.2 mph - N/A   Clear
1:51 AM 53.1 °F - 48.0 °F 83% 29.98 in 10.0 mi SSE 3.5 mph - N/A   Clear
2:51 AM 52.0 °F - 46.9 °F 83% 29.96 in 10.0 mi Calm Calm - N/A   Clear
3:51 AM 55.9 °F - 48.9 °F 77% 29.94 in 10.0 mi ENE 3.5 mph - N/A   Clear
4:51 AM 48.0 °F - 45.0 °F 89% 29.95 in 9.0 mi Calm Calm - N/A   Clear
5:51 AM 46.9 °F - 45.0 °F 93% 29.96 in 7.0 mi Calm Calm - N/A   Scattered Clouds
6:00 AM 46.4 °F - 44.6 °F 93% 29.96 in 7.0 mi Calm Calm - N/A   Mostly Cloudy
6:51 AM 50.0 °F - 48.0 °F 93% 29.96 in 9.0 mi Calm Calm - N/A   Overcast
7:51 AM 52.0 °F - 48.9 °F 89% 29.97 in 9.0 mi Calm Calm - N/A   Overcast
8:06 AM 53.6 °F - 48.2 °F 82% 29.98 in 8.0 mi Calm Calm - N/A   Overcast
8:30 AM 53.6 °F - 50.0 °F 88% 29.98 in 7.0 mi Calm Calm - N/A   Overcast
8:51 AM 53.1 °F - 50.0 °F 89% 29.99 in 7.0 mi Calm Calm - N/A   Overcast
9:18 AM 55.4 °F - 50.0 °F 82% 29.99 in 9.0 mi Calm Calm - N/A   Overcast
9:51 AM 59.0 °F - 50.0 °F 72% 29.98 in 10.0 mi Calm Calm - N/A   Scattered Clouds
10:51 AM 63.0 °F - 52.0 °F 67% 29.96 in 10.0 mi NNW 3.5 mph - N/A   Overcast
11:51 AM 63.0 °F - 52.0 °F 67% 29.96 in 10.0 mi West 3.5 mph - N/A   Overcast
12:51 PM 64.9 °F - 52.0 °F 63% 29.94 in 10.0 mi North 3.5 mph - N/A   Overcast
1:51 PM 64.0 °F - 52.0 °F 65% 29.92 in 10.0 mi NW 11.5 mph - N/A   Overcast
2:51 PM 61.0 °F - 51.1 °F 70% 29.92 in 10.0 mi NNW 10.4 mph - N/A   Overcast
3:43 PM 60.8 °F - 51.8 °F 72% 29.92 in 10.0 mi NW 11.5 mph - N/A   Overcast
3:51 PM 60.1 °F - 51.1 °F 72% 29.92 in 10.0 mi NW 10.4 mph - N/A   Overcast
4:49 PM 57.2 °F - 50.0 °F 77% 29.93 in 9.0 mi NW 9.2 mph 16.1 mph N/A   Overcast
4:51 PM 57.0 °F - 50.0 °F 77% 29.95 in 9.0 mi NW 11.5 mph 16.1 mph N/A   Overcast
5:34 PM 53.6 °F - 48.2 °F 82% 29.95 in 5.0 mi NW 10.4 mph - N/A   Overcast
5:51 PM 52.0 °F - 48.9 °F 89% 29.97 in 5.0 mi NNW 8.1 mph - N/A   Overcast
6:51 PM 50.0 °F - 48.0 °F 93% 29.99 in 6.0 mi NW 4.6 mph - N/A   Overcast
7:51 PM 48.0 °F - 46.0 °F 93% 29.99 in 4.0 mi NNW 5.8 mph - 0.00 in   Overcast
8:39 PM 46.4 °F 43.5 °F 46.4 °F 100% 29.97 in 2.5 mi WNW 5.8 mph - 0.00 in Rain Light Rain
8:46 PM 46.4 °F 44.3 °F 46.4 °F 100% 29.96 in 2.5 mi WNW 4.6 mph - 0.00 in   Overcast
8:51 PM 46.9 °F - 46.0 °F 97% 29.99 in 3.0 mi NW 3.5 mph - 0.00 in   Overcast
9:29 PM 46.4 °F 43.5 °F 44.6 °F 93% 29.97 in 2.5 mi WNW 5.8 mph - 0.00 in Rain Light Rain
9:41 PM 46.4 °F 45.2 °F 44.6 °F 93% 29.96 in 3.0 mi NW 3.5 mph - 0.00 in Rain Light Rain
9:51 PM 46.9 °F - 45.0 °F 93% 29.98 in 3.0 mi NW 3.5 mph - 0.00 in Rain Light Rain
10:23 PM 46.4 °F 45.2 °F 44.6 °F 93% 29.96 in 5.0 mi NW 3.5 mph - 0.00 in   Overcast
10:51 PM 46.9 °F - 44.1 °F 90% 29.98 in 7.0 mi NW 5.8 mph - 0.00 in   Overcast
11:01 PM 46.4 °F 43.5 °F 44.6 °F 93% 29.97 in 8.0 mi NNW 5.8 mph - N/A   Overcast
11:15 PM 46.4 °F 45.2 °F 44.6 °F 93% 29.97 in 7.0 mi Variable 3.5 mph - N/A   Overcast
11:51 PM 46.0 °F - 44.1 °F 93% 29.97 in 4.0 mi Calm Calm - 0.00 in Rain Light Rain